Time,TemperatureF,DewpointF,PressureIn,WindDirection,WindDirectionDegrees,WindSpeedMPH,WindSpeedGustMPH,Humidity,HourlyPrecipIn,Conditions,Clouds,dailyrainin,SolarRadiationWatts/m^2,SoftwareType,DateUTC
2013-04-24 00:02:00,38.0,15.0,-100.00,NW,318,1.0,5.0,39,0.00,,,0.00,0.000000,,2013-04-24 06:02:00,
2013-04-24 00:12:00,38.0,15.0,-100.00,NW,318,1.0,5.0,39,0.00,,,0.00,0.000000,,2013-04-24 06:12:00,
2013-04-24 00:21:00,38.0,15.0,-100.00,NW,318,1.0,5.0,39,0.00,,,0.00,0.000000,,2013-04-24 06:21:00,
2013-04-24 00:32:00,38.0,15.0,-100.00,NW,318,1.0,5.0,39,0.00,,,0.00,0.000000,,2013-04-24 06:32:00,
2013-04-24 00:42:00,37.0,18.0,-100.00,NNW,336,4.0,8.0,46,0.00,,,0.00,0.000000,,2013-04-24 06:42:00,
2013-04-24 01:02:00,37.0,18.0,-100.00,NNW,336,4.0,8.0,46,0.00,,,0.00,0.000000,,2013-04-24 07:02:00,
2013-04-24 01:11:00,37.0,18.0,-100.00,NNW,336,4.0,8.0,46,0.00,,,0.00,0.000000,,2013-04-24 07:11:00,
2013-04-24 01:22:00,37.0,18.0,-100.00,NNW,336,4.0,8.0,46,0.00,,,0.00,0.000000,,2013-04-24 07:22:00,
2013-04-24 01:32:00,37.0,18.0,-100.00,NNW,336,4.0,8.0,46,0.00,,,0.00,0.000000,,2013-04-24 07:32:00,
2013-04-24 01:42:00,35.0,18.0,-100.00,North,351,3.0,8.0,49,0.00,,,0.00,0.000000,,2013-04-24 07:42:00,
2013-04-24 02:02:00,35.0,18.0,-100.00,North,351,3.0,8.0,49,0.00,,,0.00,0.000000,,2013-04-24 08:02:00,
2013-04-24 02:12:00,35.0,18.0,-100.00,North,351,3.0,8.0,49,0.00,,,0.00,0.000000,,2013-04-24 08:12:00,
2013-04-24 02:21:00,35.0,18.0,-100.00,North,351,3.0,8.0,49,0.00,,,0.00,0.000000,,2013-04-24 08:21:00,
2013-04-24 02:33:00,35.0,18.0,-100.00,North,351,3.0,8.0,49,0.00,,,0.00,0.000000,,2013-04-24 08:33:00,
2013-04-24 02:42:00,33.0,17.0,-100.00,North,352,2.0,8.0,52,0.00,,,0.00,0.000000,,2013-04-24 08:42:00,
2013-04-24 03:02:00,33.0,17.0,-100.00,North,352,2.0,8.0,52,0.00,,,0.00,0.000000,,2013-04-24 09:02:00,
2013-04-24 03:11:00,33.0,17.0,-100.00,North,352,2.0,8.0,52,0.00,,,0.00,0.000000,,2013-04-24 09:11:00,
2013-04-24 03:21:00,33.0,17.0,-100.00,North,352,2.0,8.0,52,0.00,,,0.00,0.000000,,2013-04-24 09:21:00,
2013-04-24 03:33:00,33.0,17.0,-100.00,North,352,2.0,8.0,52,0.00,,,0.00,0.000000,,2013-04-24 09:33:00,
2013-04-24 03:42:00,31.0,17.0,-100.00,NNE,16,3.0,8.0,56,0.00,,,0.00,0.000000,,2013-04-24 09:42:00,
2013-04-24 04:02:00,31.0,17.0,-100.00,NNE,16,3.0,8.0,56,0.00,,,0.00,0.000000,,2013-04-24 10:02:00,
2013-04-24 04:12:00,31.0,17.0,-100.00,NNE,16,3.0,8.0,56,0.00,,,0.00,0.000000,,2013-04-24 10:12:00,
2013-04-24 04:22:00,31.0,17.0,-100.00,NNE,16,3.0,8.0,56,0.00,,,0.00,0.000000,,2013-04-24 10:22:00,
2013-04-24 04:32:00,31.0,17.0,-100.00,NNE,16,3.0,8.0,56,0.00,,,0.00,0.000000,,2013-04-24 10:32:00,
2013-04-24 04:42:00,29.0,17.0,-100.00,West,277,0.0,7.0,61,0.00,,,0.00,0.000000,,2013-04-24 10:42:00,
2013-04-24 05:02:00,29.0,17.0,-100.00,West,277,0.0,7.0,61,0.00,,,0.00,0.000000,,2013-04-24 11:02:00,
2013-04-24 05:11:00,29.0,17.0,-100.00,West,277,0.0,7.0,61,0.00,,,0.00,0.000000,,2013-04-24 11:11:00,
2013-04-24 05:21:00,29.0,17.0,-100.00,West,277,0.0,7.0,61,0.00,,,0.00,0.000000,,2013-04-24 11:21:00,
2013-04-24 05:32:00,29.0,17.0,-100.00,West,277,0.0,7.0,61,0.00,,,0.00,0.000000,,2013-04-24 11:32:00,
2013-04-24 05:42:00,26.0,18.0,-100.00,SSE,154,0.0,2.0,72,0.00,,,0.00,0.000000,,2013-04-24 11:42:00,
2013-04-24 06:02:00,26.0,18.0,-100.00,SSE,154,0.0,2.0,72,0.00,,,0.00,0.000000,,2013-04-24 12:02:00,
2013-04-24 06:11:00,26.0,18.0,-100.00,SSE,154,0.0,2.0,72,0.00,,,0.00,0.000000,,2013-04-24 12:11:00,
2013-04-24 06:22:00,26.0,18.0,-100.00,SSE,154,0.0,2.0,72,0.00,,,0.00,0.000000,,2013-04-24 12:22:00,
2013-04-24 06:32:00,26.0,18.0,-100.00,SSE,154,0.0,2.0,72,0.00,,,0.00,0.000000,,2013-04-24 12:32:00,
2013-04-24 07:01:00,27.0,18.0,-100.00,NNW,346,1.0,3.0,68,0.00,,,0.00,3.000000,,2013-04-24 13:01:00,
2013-04-24 07:12:00,27.0,18.0,-100.00,NNW,346,1.0,3.0,68,0.00,,,0.00,3.000000,,2013-04-24 13:12:00,
2013-04-24 07:22:00,27.0,18.0,-100.00,NNW,346,1.0,3.0,68,0.00,,,0.00,3.000000,,2013-04-24 13:22:00,
2013-04-24 07:32:00,27.0,18.0,-100.00,NNW,346,1.0,3.0,68,0.00,,,0.00,3.000000,,2013-04-24 13:32:00,
2013-04-24 07:41:00,27.0,18.0,-100.00,NNW,346,1.0,3.0,68,0.00,,,0.00,3.000000,,2013-04-24 13:41:00,
2013-04-24 08:11:00,32.0,18.0,-100.00,North,349,3.0,6.0,55,0.00,,,0.00,39.000000,,2013-04-24 14:11:00,
2013-04-24 08:21:00,32.0,18.0,-100.00,North,349,3.0,6.0,55,0.00,,,0.00,39.000000,,2013-04-24 14:21:00,
2013-04-24 08:32:00,32.0,18.0,-100.00,North,349,3.0,6.0,55,0.00,,,0.00,39.000000,,2013-04-24 14:32:00,
2013-04-24 08:41:00,32.0,18.0,-100.00,North,349,3.0,6.0,55,0.00,,,0.00,39.000000,,2013-04-24 14:41:00,
2013-04-24 08:42:00,38.0,19.0,-100.00,North,3,5.0,11.0,46,0.00,,,0.00,148.000000,,2013-04-24 14:42:00,
2013-04-24 09:01:00,38.0,19.0,-100.00,North,3,5.0,11.0,46,0.00,,,0.00,148.000000,,2013-04-24 15:01:00,
2013-04-24 09:11:00,38.0,19.0,-100.00,North,3,5.0,11.0,46,0.00,,,0.00,148.000000,,2013-04-24 15:11:00,
2013-04-24 09:21:00,38.0,19.0,-100.00,North,3,5.0,11.0,46,0.00,,,0.00,148.000000,,2013-04-24 15:21:00,
2013-04-24 09:33:00,38.0,19.0,-100.00,North,3,5.0,11.0,46,0.00,,,0.00,148.000000,,2013-04-24 15:33:00,
2013-04-24 09:42:00,45.0,20.0,-100.00,North,6,4.0,10.0,36,0.00,,,0.00,515.000000,,2013-04-24 15:42:00,
2013-04-24 10:03:00,45.0,20.0,-100.00,North,6,4.0,10.0,36,0.00,,,0.00,515.000000,,2013-04-24 16:03:00,
2013-04-24 10:12:00,45.0,20.0,-100.00,North,6,4.0,10.0,36,0.00,,,0.00,515.000000,,2013-04-24 16:12:00,
2013-04-24 10:23:00,45.0,20.0,-100.00,North,6,4.0,10.0,36,0.00,,,0.00,515.000000,,2013-04-24 16:23:00,
2013-04-24 10:32:00,45.0,20.0,-100.00,North,6,4.0,10.0,36,0.00,,,0.00,515.000000,,2013-04-24 16:32:00,
2013-04-24 10:42:00,53.0,20.0,-100.00,NNW,345,4.0,9.0,27,0.00,,,0.00,704.000000,,2013-04-24 16:42:00,
2013-04-24 11:02:00,53.0,20.0,-100.00,NNW,345,4.0,9.0,27,0.00,,,0.00,704.000000,,2013-04-24 17:02:00,
2013-04-24 11:12:00,53.0,20.0,-100.00,NNW,345,4.0,9.0,27,0.00,,,0.00,704.000000,,2013-04-24 17:12:00,
2013-04-24 11:22:00,53.0,20.0,-100.00,NNW,345,4.0,9.0,27,0.00,,,0.00,704.000000,,2013-04-24 17:22:00,
2013-04-24 11:32:00,53.0,20.0,-100.00,NNW,345,4.0,9.0,27,0.00,,,0.00,704.000000,,2013-04-24 17:32:00,
2013-04-24 11:42:00,58.0,18.0,-100.00,North,7,4.0,8.0,21,0.00,,,0.00,850.000000,,2013-04-24 17:42:00,
2013-04-24 12:02:00,58.0,18.0,-100.00,North,7,4.0,8.0,21,0.00,,,0.00,850.000000,,2013-04-24 18:02:00,
2013-04-24 12:12:00,58.0,18.0,-100.00,North,7,4.0,8.0,21,0.00,,,0.00,850.000000,,2013-04-24 18:12:00,
2013-04-24 12:22:00,58.0,18.0,-100.00,North,7,4.0,8.0,21,0.00,,,0.00,850.000000,,2013-04-24 18:22:00,
2013-04-24 12:33:00,58.0,18.0,-100.00,North,7,4.0,8.0,21,0.00,,,0.00,850.000000,,2013-04-24 18:33:00,
2013-04-24 12:42:00,62.0,17.0,-100.00,ESE,120,2.0,7.0,17,0.00,,,0.00,944.000000,,2013-04-24 18:42:00,
2013-04-24 13:02:00,62.0,17.0,-100.00,ESE,120,2.0,7.0,17,0.00,,,0.00,944.000000,,2013-04-24 19:02:00,
2013-04-24 13:11:00,62.0,17.0,-100.00,ESE,120,2.0,7.0,17,0.00,,,0.00,944.000000,,2013-04-24 19:11:00,
2013-04-24 13:22:00,62.0,17.0,-100.00,ESE,120,2.0,7.0,17,0.00,,,0.00,944.000000,,2013-04-24 19:22:00,
2013-04-24 13:32:00,62.0,17.0,-100.00,ESE,120,2.0,7.0,17,0.00,,,0.00,944.000000,,2013-04-24 19:32:00,
2013-04-24 13:42:00,66.0,15.0,-100.00,South,182,4.0,9.0,14,0.00,,,0.00,1070.000000,,2013-04-24 19:42:00,
2013-04-24 14:02:00,66.0,15.0,-100.00,South,182,4.0,9.0,14,0.00,,,0.00,1070.000000,,2013-04-24 20:02:00,
2013-04-24 14:11:00,66.0,15.0,-100.00,South,182,4.0,9.0,14,0.00,,,0.00,1070.000000,,2013-04-24 20:11:00,
2013-04-24 14:22:00,66.0,15.0,-100.00,South,182,4.0,9.0,14,0.00,,,0.00,1070.000000,,2013-04-24 20:22:00,
2013-04-24 14:32:00,66.0,15.0,-100.00,South,182,4.0,9.0,14,0.00,,,0.00,1070.000000,,2013-04-24 20:32:00,
2013-04-24 14:42:00,69.0,16.0,-100.00,WSW,246,4.0,8.0,13,0.00,,,0.00,894.000000,,2013-04-24 20:42:00,
2013-04-24 15:02:00,69.0,16.0,-100.00,WSW,246,4.0,8.0,13,0.00,,,0.00,894.000000,,2013-04-24 21:02:00,
2013-04-24 15:11:00,69.0,16.0,-100.00,WSW,246,4.0,8.0,13,0.00,,,0.00,894.000000,,2013-04-24 21:11:00,
2013-04-24 15:21:00,69.0,16.0,-100.00,WSW,246,4.0,8.0,13,0.00,,,0.00,894.000000,,2013-04-24 21:21:00,
2013-04-24 15:33:00,69.0,16.0,-100.00,WSW,246,4.0,8.0,13,0.00,,,0.00,894.000000,,2013-04-24 21:33:00,
2013-04-24 15:42:00,72.0,15.0,-100.00,NW,322,3.0,9.0,11,0.00,,,0.00,805.000000,,2013-04-24 21:42:00,
2013-04-24 16:03:00,72.0,15.0,-100.00,NW,322,3.0,9.0,11,0.00,,,0.00,805.000000,,2013-04-24 22:03:00,
2013-04-24 16:12:00,72.0,15.0,-100.00,NW,322,3.0,9.0,11,0.00,,,0.00,805.000000,,2013-04-24 22:12:00,
2013-04-24 16:22:00,72.0,15.0,-100.00,NW,322,3.0,9.0,11,0.00,,,0.00,805.000000,,2013-04-24 22:22:00,
2013-04-24 16:33:00,72.0,15.0,-100.00,NW,322,3.0,9.0,11,0.00,,,0.00,805.000000,,2013-04-24 22:33:00,
2013-04-24 16:42:00,74.0,16.0,-100.00,WSW,253,4.0,7.0,11,0.00,,,0.00,698.000000,,2013-04-24 22:42:00,
2013-04-24 17:02:00,74.0,16.0,-100.00,WSW,253,4.0,7.0,11,0.00,,,0.00,698.000000,,2013-04-24 23:02:00,
2013-04-24 17:12:00,74.0,16.0,-100.00,WSW,253,4.0,7.0,11,0.00,,,0.00,698.000000,,2013-04-24 23:12:00,
2013-04-24 17:21:00,74.0,16.0,-100.00,WSW,253,4.0,7.0,11,0.00,,,0.00,698.000000,,2013-04-24 23:21:00,
2013-04-24 17:32:00,74.0,16.0,-100.00,WSW,253,4.0,7.0,11,0.00,,,0.00,698.000000,,2013-04-24 23:32:00,
2013-04-24 17:42:00,74.0,16.0,-100.00,SSW,201,3.0,7.0,11,0.00,,,0.00,484.000000,,2013-04-24 23:42:00,
2013-04-24 18:02:00,74.0,16.0,-100.00,SSW,201,3.0,7.0,11,0.00,,,0.00,484.000000,,2013-04-25 00:02:00,
2013-04-24 18:12:00,74.0,16.0,-100.00,SSW,201,3.0,7.0,11,0.00,,,0.00,484.000000,,2013-04-25 00:12:00,
2013-04-24 18:22:00,74.0,16.0,-100.00,SSW,201,3.0,7.0,11,0.00,,,0.00,484.000000,,2013-04-25 00:22:00,
2013-04-24 18:32:00,74.0,16.0,-100.00,SSW,201,3.0,7.0,11,0.00,,,0.00,484.000000,,2013-04-25 00:32:00,
2013-04-24 18:42:00,68.0,17.0,-100.00,SSW,209,1.0,7.0,14,0.00,,,0.00,181.000000,,2013-04-25 00:42:00,
2013-04-24 19:01:00,68.0,17.0,-100.00,SSW,209,1.0,7.0,14,0.00,,,0.00,181.000000,,2013-04-25 01:01:00,
2013-04-24 19:11:00,68.0,17.0,-100.00,SSW,209,1.0,7.0,14,0.00,,,0.00,181.000000,,2013-04-25 01:11:00,
2013-04-24 19:23:00,68.0,17.0,-100.00,SSW,209,1.0,7.0,14,0.00,,,0.00,181.000000,,2013-04-25 01:23:00,
2013-04-24 19:32:00,68.0,17.0,-100.00,SSW,209,1.0,7.0,14,0.00,,,0.00,181.000000,,2013-04-25 01:32:00,
2013-04-24 19:42:00,61.0,21.0,-100.00,WSW,251,1.0,2.0,21,0.00,,,0.00,33.000000,,2013-04-25 01:42:00,
2013-04-24 20:02:00,61.0,21.0,-100.00,WSW,251,1.0,2.0,21,0.00,,,0.00,33.000000,,2013-04-25 02:02:00,
2013-04-24 20:11:00,61.0,21.0,-100.00,WSW,251,1.0,2.0,21,0.00,,,0.00,33.000000,,2013-04-25 02:11:00,
2013-04-24 20:22:00,61.0,21.0,-100.00,WSW,251,1.0,2.0,21,0.00,,,0.00,33.000000,,2013-04-25 02:22:00,
2013-04-24 20:32:00,61.0,21.0,-100.00,WSW,251,1.0,2.0,21,0.00,,,0.00,33.000000,,2013-04-25 02:32:00,
2013-04-24 20:42:00,58.0,29.0,-100.00,East,94,0.0,0.0,33,0.00,,,0.00,0.000000,,2013-04-25 02:42:00,
2013-04-24 21:02:00,58.0,29.0,-100.00,East,94,0.0,0.0,33,0.00,,,0.00,0.000000,,2013-04-25 03:02:00,
2013-04-24 21:11:00,58.0,29.0,-100.00,East,94,0.0,0.0,33,0.00,,,0.00,0.000000,,2013-04-25 03:11:00,
2013-04-24 21:22:00,58.0,29.0,-100.00,East,94,0.0,0.0,33,0.00,,,0.00,0.000000,,2013-04-25 03:22:00,
2013-04-24 21:33:00,58.0,29.0,-100.00,East,94,0.0,0.0,33,0.00,,,0.00,0.000000,,2013-04-25 03:33:00,
2013-04-24 21:42:00,55.0,28.0,-100.00,NE,55,0.0,0.0,35,0.00,,,0.00,0.000000,,2013-04-25 03:42:00,
2013-04-24 22:03:00,55.0,28.0,-100.00,NE,55,0.0,0.0,35,0.00,,,0.00,0.000000,,2013-04-25 04:03:00,
2013-04-24 22:12:00,55.0,28.0,-100.00,NE,55,0.0,0.0,35,0.00,,,0.00,0.000000,,2013-04-25 04:12:00,
2013-04-24 22:23:00,55.0,28.0,-100.00,NE,55,0.0,0.0,35,0.00,,,0.00,0.000000,,2013-04-25 04:23:00,
2013-04-24 22:32:00,55.0,28.0,-100.00,NE,55,0.0,0.0,35,0.00,,,0.00,0.000000,,2013-04-25 04:32:00,
2013-04-24 22:42:00,52.0,32.0,-100.00,WSW,249,0.0,2.0,47,0.00,,,0.00,0.000000,,2013-04-25 04:42:00,
2013-04-24 23:02:00,52.0,32.0,-100.00,WSW,249,0.0,2.0,47,0.00,,,0.00,0.000000,,2013-04-25 05:02:00,
2013-04-24 23:12:00,52.0,32.0,-100.00,WSW,249,0.0,2.0,47,0.00,,,0.00,0.000000,,2013-04-25 05:12:00,
2013-04-24 23:21:00,52.0,32.0,-100.00,WSW,249,0.0,2.0,47,0.00,,,0.00,0.000000,,2013-04-25 05:21:00,
2013-04-24 23:32:00,52.0,32.0,-100.00,WSW,249,0.0,2.0,47,0.00,,,0.00,0.000000,,2013-04-25 05:32:00,